Dewpoint
51 51 51 50 50 50 51 51 50 50 50 50 50 50 51 50 51 40 33 34 40 48 48 41 38 47 47 46 44 39 35 32 33 31 29 27 21 20 21 22 26 31 37 54 59
50 50 50 50 50 50 50 50 50 50 50 50 50 50 49 49 41 38 44 46 51 53 46 36 35 37 42 41 42 37 34 32 31 29 29 27 24 22 20 21 27 38 56 58 59
50 50 50 50 50 50 50 50 50 50 50 49 49 49 49 46 37 40 50 49 46 46 44 44 37 35 38 40 37 37 33 31 27 28 30 29 28 25 22 22 25 35 53 54 56
50 49 50 49 49 49 50 50 50 49 49 49 49 49 49 42 21 46 48 43 45 40 34 37 38 38 36 36 37 32 34 33 30 27 30 29 29 26 25 27 26 36 53 54 55
49 49 49 49 49 49 49 49 49 49 49 49 48 48 45 35 34 32 41 36 33 32 31 29 36 37 34 34 35 30 29 27 28 27 28 28 27 27 27 28 32 51 53 53 54
49 48 49 49 49 49 49 49 49 48 48 48 47 47 41 32 31 29 31 32 32 31 31 29 29 38 38 32 33 31 29 25 24 23 27 26 26 27 28 30 38 50 50 52 54
48 48 48 49 49 49 49 49 48 47 47 47 47 42 34 31 35 34 35 34 33 33 32 32 34 40 39 35 32 31 29 25 22 23 25 27 26 26 28 32 38 44 49 52 54
48 48 48 48 48 48 48 48 47 48 45 45 44 38 32 36 34 32 31 30 33 35 34 34 35 37 39 40 37 27 33 21 22 23 25 26 23 25 29 32 38 41 47 51 54
48 48 48 48 48 48 47 46 48 48 44 45 36 35 30 39 29 28 30 30 32 32 34 33 34 34 36 37 33 28 21 21 20 21 24 25 23 25 29 30 36 41 46 49 51
47 47 48 48 47 47 47 48 46 41 33 28 32 31 32 24 27 29 31 33 31 30 30 31 35 32 33 34 24 21 18 17 17 18 19 22 23 24 28 28 31 40 44 46 49
47 47 48 48 47 46 44 29 28 25 30 30 28 28 27 26 29 28 33 33 34 31 27 30 32 27 28 30 34 21 18 16 16 18 20 19 23 24 28 28 29 36 44 45 48
48 48 48 47 46 47 39 30 33 36 32 31 30 28 28 27 25 25 32 33 35 30 30 30 30 26 24 28 29 27 22 21 23 25 24 23 22 25 29 30 32 33 44 45 45
47 48 49 48 46 39 29 30 37 38 31 27 24 23 25 24 23 29 33 34 32 30 27 24 26 28 25 23 31 29 26 31 25 28 28 25 23 24 29 31 33 40 42 41 38
47 48 48 46 38 33 28 33 39 39 28 15 16 20 21 23 26 35 38 37 35 32 29 29 31 30 25 21 29 29 32 34 30 26 22 25 17 26 28 32 31 36 38 37 37
47 47 46 45 36 29 32 36 40 40 15 13 17 22 22 20 23 33 39 37 32 30 31 28 32 32 29 30 29 29 34 33 33 27 24 24 19 21 26 29 30 32 36 36 36
47 46 44 35 34 31 34 40 39 29 11 12 18 20 21 22 24 28 32 38 37 32 31 28 29 32 33 35 31 33 33 34 33 30 22 22 21 16 25 27 29 31 34 35 33
47 46 42 32 29 33 38 38 28 16 16 16 18 21 22 22 25 29 31 31 29 25 24 27 25 31 33 29 31 29 26 20 20 18 13 22 20 22 25 27 31 32 33 32 31
48 47 40 28 34 37 38 34 12 17 20 20 21 23 16 22 24 27 28 25 31 30 27 24 20 26 28 30 26 26 24 19 14 9 16 20 13 22 24 26 29 30 30 30 30
46 35 33 31 35 37 35 20 17 20 20 22 24 19 20 22 24 26 27 25 27 31 25 26 22 29 31 31 29 25 24 22 20 20 17 18 19 20 22 25 30 29 27 26 29
38 32 31 33 37 36 33 17 17 20 23 25 23 21 19 22 23 26 24 29 28 31 34 29 24 29 30 32 31 27 26 19 21 17 16 21 19 18 19 22 28 27 20 22 28
40 28 31 34 38 31 24 21 19 21 25 26 22 24 21 22 22 24 23 27 31 29 34 32 28 24 32 29 27 25 23 24 21 20 18 11 18 20 22 23 25 26 20 20 22
37 32 34 35 31 33 24 21 21 20 23 27 30 24 23 23 20 24 21 28 33 29 28 32 27 23 22 24 30 31 28 27 19 17 19 22 20 22 22 23 25 23 21 19 21
31 29 36 36 26 26 20 17 21 20 22 23 24 25 23 22 20 22 21 28 28 28 28 31 22 19 20 22 24 29 24 26 28 26 18 14 17 22 25 25 25 23 20 17 19
33 32 35 34 31 24 21 21 21 23 22 22 24 23 24 20 22 21 21 23 24 27 29 30 23 18 18 21 24 22 24 23 23 22 25 18 19 22 24 24 25 22 19 17 18
32 31 30 27 28 24 23 23 20 20 22 23 23 20 24 19 20 20 23 23 24 26 26 25 22 18 20 20 22 21 19 20 19 20 18 19 19 23 25 24 22 23 21 18 17
34 32 31 29 24 25 24 20 20 21 22 22 22 24 25 23 26 22 24 23 24 23 18 22 22 21 18 20 20 21 22 22 22 21 21 22 20 23 22 22 19 17 17 18 20
35 34 34 29 28 26 23 22 21 23 24 25 26 26 24 27 28 29 29 30 30 24 17 21 12 15 20 18 15 15 12 19 22 22 22 20 20 22 22 24 24 20 18 18 21
Lifted_Index
12 12 12 12 12 13 13 12 12 12 12 12 11 11 11 11 11 11 11 10 9 8 8 9 8 6 4 4 5 6 6 6 6 5 4 4 5 7 7 7 7 6 4 3 2
12 12 12 12 13 13 13 13 12 12 12 12 11 11 11 11 11 10 10 9 8 7 8 8 8 6 5 5 5 6 6 6 6 5 4 4 5 7 7 7 7 6 3 2 2
12 12 12 13 13 13 13 13 13 13 12 12 12 11 11 11 10 9 8 8 8 8 8 8 8 7 6 5 5 6 6 6 6 5 4 4 5 6 7 7 7 5 3 2 2
12 12 13 13 13 13 13 13 13 13 13 12 12 11 11 11 9 9 9 9 10 10 9 8 7 6 5 5 4 5 6 6 5 4 4 4 5 5 6 6 6 5 3 2 2
13 13 13 13 13 13 13 13 13 13 13 12 12 11 11 10 10 10 10 11 11 10 10 8 6 4 4 3 3 4 5 5 4 4 4 4 4 5 5 6 5 3 2 2 2
13 13 13 13 13 13 13 13 13 13 12 12 12 11 10 10 11 11 11 11 10 9 8 7 5 3 2 2 2 2 3 3 4 3 4 4 4 4 5 5 4 2 2 2 2
13 13 13 13 13 13 13 13 13 13 12 12 11 11 11 10 10 10 10 9 8 7 6 5 4 2 1 1 0 0 1 2 3 3 3 4 4 4 5 5 3 2 2 1 1
13 13 13 13 14 14 13 13 13 12 12 12 11 11 11 10 10 9 8 6 5 4 3 3 3 2 1 0 -0 -0 0 1 2 3 3 3 4 4 4 4 3 2 1 1 1
13 13 13 13 14 14 14 13 12 12 12 12 11 11 10 10 9 8 6 4 3 2 2 2 2 2 1 0 0 0 0 1 2 2 2 2 3 3 3 3 3 1 1 1 1
13 13 13 13 13 14 14 13 13 13 13 13 12 11 11 9 7 5 3 2 1 1 2 2 2 2 1 1 0 0 0 1 1 1 1 2 2 2 2 3 2 1 1 1 1
13 13 13 13 13 14 14 14 14 13 13 13 13 12 10 8 5 2 1 0 0 0 1 1 1 2 1 1 0 0 0 0 1 1 1 1 1 1 2 2 2 1 1 1 1
13 13 13 13 14 14 14 15 15 14 13 13 12 11 9 6 3 1 0 -0 -0 0 1 1 1 1 1 1 0 0 -0 -0 -0 -0 0 0 1 1 1 1 2 2 1 1 1
13 13 13 13 14 14 15 15 15 14 12 12 11 9 7 4 2 0 -0 -0 0 0 0 0 0 0 0 1 0 0 -0 -0 -0 -0 -0 0 0 1 1 1 1 2 2 2 2
13 13 13 14 14 15 15 15 14 12 11 11 10 8 5 3 1 -0 -0 0 1 1 0 0 0 0 0 1 0 0 0 0 -0 -0 -0 -0 0 0 0 1 1 2 2 2 3
13 13 14 15 15 15 15 15 13 10 8 9 10 7 4 2 1 0 1 1 1 1 1 0 0 0 1 1 0 0 0 0 0 0 -0 -0 0 0 0 0 1 2 2 3 3
13 14 15 15 16 16 15 13 11 8 7 9 9 6 3 2 1 1 1 1 2 1 1 1 0 0 1 1 0 0 0 0 0 0 0 0 0 0 0 0 1 1 2 3 4
13 14 15 16 16 16 14 11 8 8 9 10 8 5 2 1 1 1 1 1 2 1 1 1 0 0 0 0 0 0 0 0 0 0 0 1 1 1 0 0 1 2 2 3 3
13 14 15 16 16 15 12 9 8 9 11 10 7 3 2 2 1 1 1 2 2 1 1 1 1 1 1 0 0 0 0 0 0 0 1 1 1 1 1 1 1 2 2 3 3
14 14 15 15 15 14 11 9 9 11 12 9 6 3 2 2 1 1 2 2 2 2 1 1 1 1 1 1 0 0 0 0 0 0 1 1 1 1 1 1 2 2 2 3 3
14 14 15 15 14 13 11 11 12 13 12 9 5 3 2 2 2 2 2 2 2 2 2 1 1 1 1 1 1 1 1 1 1 0 0 0 1 1 1 2 2 3 3 3 4
14 14 14 15 14 12 11 12 13 13 11 8 5 3 2 2 2 2 2 3 3 2 2 1 1 1 1 1 1 1 1 1 1 0 0 0 1 1 2 2 3 3 4 4 4
13 13 14 14 13 12 12 13 14 13 11 8 5 3 2 2 2 2 3 3 3 3 2 1 1 1 1 1 1 1 1 1 1 1 1 0 1 2 3 3 3 3 4 5 5
13 13 14 13 13 12 13 14 14 13 10 7 4 3 2 2 2 3 3 3 3 3 2 2 1 1 1 1 1 1 1 1 1 1 1 1 1 2 3 3 3 4 4 5 6
13 13 13 13 13 13 14 14 14 12 10 7 4 3 2 2 3 3 3 4 4 4 3 2 1 1 1 1 1 1 1 1 1 1 1 1 1 2 2 3 3 4 5 6 7
13 13 13 13 13 14 14 14 13 11 9 6 4 3 2 2 2 3 3 4 4 4 3 2 2 1 1 1 1 1 1 1 1 1 1 1 2 2 3 3 4 5 6 7 7
13 13 13 13 13 13 13 14 13 11 8 5 3 2 2 2 3 3 3 4 4 4 3 2 2 1 1 1 1 1 1 1 1 1 1 1 2 3 4 4 5 5 6 7 7
14 14 13 13 13 13 13 13 13 10 7 5 3 2 2 2 3 3 4 4 4 4 3 3 2 1 1 1 1 1 1 1 1 1 1 2 2 3 4 4 5 5 6 6 6